Location: Oroua River
(40.4333°S, 175.4333°E)
Time: 14:54:04
(UTC+00:00)

Cosmos 192 - Pass Details

Date: 03 February 2023
Orbit: 700 x 712 km, 74.0° (Epoch: 22 March)

Event Time Altitude Azimuth Distance (km) Brightness Sun altitude
Rises 15:10:21 0° 199° (SSW) 3,124 8.1 -22.3°
Reaches altitude 10° 15:12:42 10° 198° (SSW) 2,197 7.2 -22.0°
Maximum altitude 15:17:40 85° 110° (ESE) 718 4.3 -21.3°
Enters shadow 15:21:03 20° 21° (NNE) 1,585 5.9 -20.9°
